Overview Statistics Trail Chart Weather Telemetry Raw packets
 

This is the latest recevied weather packets stored in our database for station/object DH2PG-6. If no packets are shown the sender has not sent any weather packets the latest 10 day(s).

<< 38 39 40 41 42 43 44 >>
Time Temp. Humidity Pressure Rain* Wind** Luminosity Snow
1788350571 20° C 56% 1018.4 hPa 0 mm - - -
1788350270 20° C 57% 1018.3 hPa 0 mm - - -
1788349970 19.44° C 60% 1018.4 hPa 0 mm - - -
1788349670 19.44° C 59% 1018.3 hPa 0 mm - - -
1788349370 19.44° C 59% 1018.2 hPa 0 mm - - -
1788349069 19.44° C 59% 1018.3 hPa 0 mm - - -
1788348769 19.44° C 61% 1018.6 hPa 0 mm - - -
1788348168 19.44° C 60% 1018.6 hPa 0 mm - - -
1788347568 19.44° C 58% 1018.7 hPa 0 mm - - -
1788347268 19.44° C 60% 1018.7 hPa 0 mm - - -
1788346967 19.44° C 60% 1018.6 hPa 0 mm - - -
1788346367 19.44° C 62% 1018.7 hPa 0 mm - - -
1788346066 19.44° C 62% 1018.6 hPa 0 mm - - -
1788345766 18.89° C 62% 1018.6 hPa 0 mm - - -
1788345466 18.89° C 63% 1018.7 hPa 0 mm - - -
1788344865 18.33° C 64% 1018.7 hPa 0 mm - - -
1788344565 18.33° C 63% 1018.7 hPa 0 mm - - -
1788344265 18.33° C 64% 1018.7 hPa 0 mm - - -
1788343964 17.78° C 63% 1018.8 hPa 0 mm - - -
1788343066 18.33° C 64% 1018.8 hPa 0 mm - - -
1788342163 18.33° C 65% 1018.7 hPa 0 mm - - -
1788341862 17.78° C 66% 1018.7 hPa 0 mm - - -
1788341562 17.78° C 67% 1018.5 hPa 0 mm - - -
1788341262 17.22° C 67% 1018.6 hPa 0 mm - - -
1788340661 17.22° C 68% 1018.7 hPa 0 mm - - -

* Rain latest hour (hover to see other rain measurements)
** Current wind speed in m/s (hover to see current wind gust speed)